COSMOS 2251 DEB, 33905

Orbit data source: Space-Track

COSMOS 2251 DEB, 33905 is space debris in LEO originally from a launch on Wed, 16 Jun 1993 UTC launched from the Plesetsk Missile And Space Complex (PKMTR). The debris from Iridium 33, an American commercial communications satellite, has been tracked extensively since its accidental collision with the defunct Russian satellite Cosmos 2251 in 2009. This event, occurring at high speed in low Earth orbit (LEO), generated thousands of pieces of space debris, significantly increasing the risk of further collisions. The Iridium 33 debris cloud has impacted space traffic management and orbital debris mitigation strategies, making it a subject of ongoing study in space situational awareness.

Loading next visibility...
Identifier
33905, 1993-036DJ
Orbit
LEO
Country
Flag of CISCIS
Related business
Manufacturer
Unknown
Mission
Spacecraft
Bus & Motor
Unknown
Mass
Unknown
Launch date (UTC)
1993-06-16 (33 years ago)
Launch vehicle
Unknown
Launch site
Plesetsk Missile And Space Complex (PKMTR)
Object type
Payload
Rocket body
Debris
Shape & HBR
Unknown shape, 0.1 m
Radar Cross Section
Medium (>0.1 m² and <1 m²)

Expand to show TLE details & history
Last TLE update: 6 hours ago

TLE from 6 hours ago
0 COSMOS 2251 DEB
1 33905U 93036DJ  26168.52493454  .00001430  00000-0  49200-3 0  9996
2 33905  73.8862 330.7332 0056645 179.3212 237.7901 14.36033299903683
Epoch: 2026-06-17T12:35Z
TLE epoch observation values (Epoch: 2026-06-17T12:35:54.344Z)
Latitude
53.40276°
Longitude
-101.25826°
Altitude
801.771 km
Speed
7.447 km/s
True Right ascension
23h 33m 59s
True Declination
53° 14' 20"
Sunlit
Object was in daylight at epoch
Visualization orbit readout
Latitude
Unknown
Longitude
Unknown
Altitude
Unknown
Speed
Unknown
Apparent Right ascension
Unknown
Apparent Declination
Unknown
Sunlit
N/A
Visualization observer readout
Local Sidereal Time
05:47:42
Azimuth
Unknown
Elevation
Unknown
Doppler factor
Unknown
Orbital elements
Apogee altitude
809.758 km
Perigee altitude
728.785 km
Semi-major axis
7,147.408 km
Eccentricity
0.00566
Inclination
73.8862°
RAAN
330.7332°
Arg. of periapsis
179.3212°
True anomaly
237.24297°
Mean anomaly
237.7901°
Eccentric anomaly
237.51633°
Mean motion
3.59187 °/min
Orbital period
100.23 mins
BSTAR
0.000492

Documentation

Showing up to 5 results
|